This is the latest recevied weather packets stored in our database for station/object EB1BWO-10. If no packets are shown the sender has not sent any weather packets the latest 10 day(s).
| Time | Temp. | Humidity | Pressure | Rain* | Wind** | Luminosity | Snow |
|---|---|---|---|---|---|---|---|
| 1777642066 | 16.67° C | 80% | 952 hPa | - | - | - | - |
| 1777641166 | 18.33° C | 77% | 953.1 hPa | - | - | - | - |
| 1777639367 | 18.33° C | 76% | 953.2 hPa | - | - | - | - |
| 1777638467 | 17.78° C | 80% | 953.2 hPa | - | - | - | - |
| 1777637567 | 17.78° C | 80% | 953.4 hPa | - | - | - | - |
| 1777636667 | 17.22° C | 81% | 953.4 hPa | - | - | - | - |
| 1777635767 | 18.33° C | 75% | 953.6 hPa | - | - | - | - |
| 1777634867 | 15.56° C | 82% | 952.4 hPa | - | - | - | - |
| 1777633967 | 16.11° C | 80% | 953.7 hPa | - | - | - | - |
| 1777633067 | 17.78° C | 77% | 953.8 hPa | - | - | - | - |
| 1777632167 | 17.22° C | 79% | 953.7 hPa | - | - | - | - |
| 1777631267 | 17.78° C | 77% | 953.8 hPa | - | - | - | - |
| 1777630367 | 17.22° C | 78% | 953.9 hPa | - | - | - | - |
| 1777629466 | 17.22° C | 79% | 953.9 hPa | - | - | - | - |
| 1777628566 | 17.22° C | 76% | 953.9 hPa | - | - | - | - |
| 1777627666 | 16.11° C | 79% | 954 hPa | - | - | - | - |
| 1777626766 | 15.56° C | 81% | 953.9 hPa | - | - | - | - |
| 1777625866 | 15° C | 81% | 953.9 hPa | - | - | - | - |
| 1777624966 | 15.56° C | 81% | 953.9 hPa | - | - | - | - |
| 1777624066 | 15.56° C | 79% | 953.9 hPa | - | - | - | - |
| 1777623166 | 16.67° C | 78% | 953.9 hPa | - | - | - | - |
| 1777622266 | 15.56° C | 81% | 953.9 hPa | - | - | - | - |
| 1777621366 | 15° C | 81% | 953.9 hPa | - | - | - | - |
| 1777620466 | 13.89° C | 84% | 954.1 hPa | - | - | - | - |
| 1777619566 | 12.78° C | 84% | 954.1 hPa | - | - | - | - |
* Rain since midnight (hover to see other rain measurements)
** Current wind speed in m/s (hover to see current wind gust speed)